Meteo Giornale » Osservazioni meteo Gran Bretagna » Wattisham
ore: 01:50 - Osservazioni Meteo Wattisham
Lat. 52° 7' N Lon. 0° 58' E Alt. 87 metri s.l.m.
14 °C
Nuvoloso
Temp. 24 Ore
14 °C
23 °C
Ovest
13 Km/h
Dew point 11 °C
Umidità 82 %
Visibilità 10 Km
Il sole sorge alle ore 06:07
Il sole tramonta alle ore 19:44
| Data e Ora | Cielo e Fenomeni | T °C | DP °C | Um. % | Pres. hPa | Vis. km | Vento km/h | |
|---|---|---|---|---|---|---|---|---|
| Oggi h: 01:50 | Nuvoloso | 14 | 11 | 82 | 1018 | 10 | O 13 | |
| Oggi h: 01:20 | Molto Nuvoloso | 14 | 10 | 76 | 1018 | 10 | O 11.1 | |
| Oggi h: 00:50 | Nuvoloso | 14 | 10 | 76 | 1018 | 10 | O/NO 11.1 | |
| Oggi h: 00:20 | Poco Nuvoloso | 15 | 11 | 76 | 1017 | 10 | O/NO 11.1 | |
| Ieri h: 23:50 | Molto Nuvoloso | 16 | 11 | 72 | 1017 | 10 | O/NO 13 | |
| Ieri h: 23:20 | Molto Nuvoloso | 16 | 11 | 72 | 1017 | 10 | O/NO 13 | |
| Ieri h: 22:50 | Coperto | 17 | 12 | 72 | 1017 | 10 | O/NO 16.7 | |
| Ieri h: 22:20 | Nuvoloso | 17 | 12 | 72 | 1017 | 10 | O/NO 14.8 | |
| Ieri h: 21:50 | Nuvoloso | 17 | 12 | 72 | 1016 | 10 | NO 14.8 | |
| Ieri h: 21:20 | Coperto | 18 | 13 | 72 | 1016 | 10 | O/NO 13 | |
| Ieri h: 20:50 | Molto Nuvoloso | 18 | 13 | 72 | 1016 | 10 | O/NO 13 | |
| Ieri h: 20:20 | Molto Nuvoloso | 18 | 14 | 77 | 1015 | 10 | O 11.1 | |
| Ieri h: 19:50 | Molto Nuvoloso | 18 | 14 | 77 | 1015 | 10 | O/SO 9.3 | |
| Ieri h: 19:20 | Nuvoloso | 18 | 14 | 77 | 1014 | 10 | O/SO 11.1 | |
| Ieri h: 18:50 | Molto Nuvoloso | 19 | 15 | 77 | 1014 | 10 | O 14.8 | |
| Ieri h: 18:20 | Coperto | 19 | 15 | 77 | 1014 | 10 | O 13 | |
| Ieri h: 17:50 | Coperto | 18 | 15 | 82 | 1013 | 10 | O 14.8 | |
| Ieri h: 17:20 | Pioggia | 20 | 13 | 64 | 1013 | 10 | O 27.8 | |
| Ieri h: 16:50 | Molto Nuvoloso | 23 | 13 | 53 | 1012 | 10 | O 31.5 | |
| Ieri h: 16:20 | Molto Nuvoloso | 22 | 13 | 56 | 1012 | 10 | O 25.9 | |
| Ieri h: 15:50 | Poco Nuvoloso | 22 | 12 | 53 | 1012 | 10 | O 25.9 | |
| Ieri h: 15:20 | Nuvoloso | 22 | 13 | 56 | 1011 | 10 | O 31.5 | |
| Ieri h: 14:50 | Nuvoloso | 23 | 12 | 49 | 1011 | 10 | O 27.8 | |
| Ieri h: 14:20 | Molto Nuvoloso | 21 | 11 | 52 | 1011 | 10 | O 24 | |
| Ieri h: 13:50 | Coperto | 21 | 12 | 56 | 1010 | 10 | O 27.8 | |
| Ieri h: 13:20 | Molto Nuvoloso | 20 | 12 | 59 | 1010 | 10 | O/NO 20.3 | |
| Ieri h: 12:50 | Molto Nuvoloso | 20 | 12 | 59 | 1010 | 10 | O 16.7 | |
| Ieri h: 12:20 | Molto Nuvoloso | 19 | 12 | 63 | 1009 | 10 | O 25.9 | |
| Ieri h: 11:50 | Coperto | 19 | 12 | 63 | 1009 | 10 | O 24 | |
| Ieri h: 11:20 | Coperto | 18 | 13 | 72 | 1009 | 10 | O 24 | |
| Ieri h: 10:50 | Nuvoloso | 18 | 12 | 67 | 1008 | 10 | O 25.9 | |
| Ieri h: 10:20 | Molto Nuvoloso | 17 | 12 | 72 | 1008 | 10 | O 27.8 | |
| Ieri h: 09:50 | Coperto | 17 | 12 | 72 | 1007 | 10 | O 27.8 | |
| Ieri h: 09:20 | Molto Nuvoloso | 16 | 12 | 77 | 1007 | 10 | O 27.8 | |
| Ieri h: 08:50 | Nuvoloso | 16 | 13 | 82 | 1007 | 10 | O 24 | |
| Ieri h: 08:20 | Molto Nuvoloso | 15 | 13 | 87 | 1006 | 10 | O 25.9 | |
| Ieri h: 07:50 | Coperto | 14 | 12 | 87 | 1006 | 10 | O/SO 24 | |
| Ieri h: 07:20 | Molto Nuvoloso | 14 | 13 | 93 | 1005 | 10 | O/SO 18.5 | |
| Ieri h: 06:50 | Molto Nuvoloso | 14 | 13 | 93 | 1005 | 10 | O 18.5 | |
| Ieri h: 06:20 | Nuvoloso | 14 | 13 | 93 | 1004 | 10 | O/SO 22.2 | |
| Ieri h: 05:50 | Nuvoloso | 15 | 13 | 87 | 1004 | 10 | O/SO 22.2 | |
| Ieri h: 05:20 | Coperto | 15 | 14 | 93 | 1004 | 10 | O/SO 16.7 | |
| Ieri h: 04:50 | Molto Nuvoloso | 15 | 14 | 93 | 1004 | 10 | S/SO 16.7 | |
| Ieri h: 04:20 | Coperto | 15 | 14 | 93 | 1004 | 10 | S/SO 9.3 | |
| Ieri h: 03:50 | Nuvoloso | 15 | 14 | 93 | 1004 | 10 | S 13 | |
| Ieri h: 03:20 | Molto Nuvoloso | 15 | 14 | 93 | 1004 | 10 | S 13 | |
| Ieri h: 02:50 | Molto Nuvoloso | 15 | 13 | 87 | 1004 | 10 | S 11.1 | |



